contact: severine.martini@mio.osupytheas.fr, dominique.lefevre@mio.osupytheas.fr
Project:EMSO Ligure-ouest http://www.emso-fr.org/EMSO-France
Sensor Microcat Sea-Bird SBE37 SMP,  Serial 57510 
DOI : "https://doi.org/10.17882/97948" 
Title:EMSO Ligure Ouest : Data Bathybot capteur Microcat - deploiement 2023-04-28
Datetime,Profondeur,Latitude,Longitude,Temperature,Conductivite,Pression,Salinite
time,m,degree_north,degree_east,degree_C,S/m,db,PSU 
2023-09-27T00:00:49,2420,42.8014,5.9826,13.2969,4.59895,2453.559,38.4867
2023-09-27T00:03:49,2420,42.8014,5.9826,13.2969,4.59894,2453.537,38.4866
2023-09-27T00:06:49,2420,42.8014,5.9826,13.2969,4.59906,2453.559,38.4877
2023-09-27T00:09:49,2420,42.8014,5.9826,13.2970,4.59897,2453.574,38.4868
2023-09-27T00:12:49,2420,42.8014,5.9826,13.2968,4.59894,2453.559,38.4867
2023-09-27T00:15:49,2420,42.8014,5.9826,13.2965,4.59900,2453.582,38.4875
2023-09-27T00:18:49,2420,42.8014,5.9826,13.2967,4.59903,2453.559,38.4876
2023-09-27T00:21:49,2420,42.8014,5.9826,13.2968,4.59899,2453.604,38.4872
2023-09-27T00:24:49,2420,42.8014,5.9826,13.2970,4.59902,2453.559,38.4872
2023-09-27T00:27:49,2420,42.8014,5.9826,13.2970,4.59897,2453.544,38.4868
2023-09-27T00:30:49,2420,42.8014,5.9826,13.2968,4.59901,2453.559,38.4874
2023-09-27T00:33:49,2420,42.8014,5.9826,13.2970,4.59903,2453.551,38.4873
2023-09-27T00:36:49,2420,42.8014,5.9826,13.2970,4.59894,2453.582,38.4865
2023-09-27T00:39:49,2420,42.8014,5.9826,13.2969,4.59896,2453.544,38.4868
2023-09-27T00:42:49,2420,42.8014,5.9826,13.2970,4.59894,2453.559,38.4865
2023-09-27T00:45:49,2420,42.8014,5.9826,13.2969,4.59889,2453.582,38.4860
2023-09-27T00:48:49,2420,42.8014,5.9826,13.2966,4.59896,2453.567,38.4871
2023-09-27T00:51:49,2420,42.8014,5.9826,13.2970,4.59896,2453.582,38.4867
2023-09-27T00:54:49,2420,42.8014,5.9826,13.2972,4.59900,2453.537,38.4869
2023-09-27T00:57:49,2420,42.8014,5.9826,13.2969,4.59894,2453.567,38.4865
2023-09-27T01:00:49,2420,42.8014,5.9826,13.2970,4.59903,2453.582,38.4873
2023-09-27T01:03:49,2420,42.8014,5.9826,13.2969,4.59900,2453.559,38.4871
2023-09-27T01:06:49,2420,42.8014,5.9826,13.2970,4.59900,2453.559,38.4870
2023-09-27T01:09:49,2420,42.8014,5.9826,13.2968,4.59903,2453.559,38.4874
2023-09-27T01:12:49,2420,42.8014,5.9826,13.2968,4.59900,2453.559,38.4873
2023-09-27T01:15:49,2420,42.8014,5.9826,13.2970,4.59901,2453.522,38.4872
2023-09-27T01:18:49,2420,42.8014,5.9826,13.2970,4.59896,2453.582,38.4866
2023-09-27T01:21:49,2420,42.8014,5.9826,13.2964,4.59900,2453.537,38.4877
2023-09-27T01:24:49,2420,42.8014,5.9826,13.2973,4.59900,2453.596,38.4867
2023-09-27T01:27:49,2420,42.8014,5.9826,13.2973,4.59897,2453.582,38.4865
2023-09-27T01:30:49,2420,42.8014,5.9826,13.2967,4.59894,2453.559,38.4868
2023-09-27T01:33:49,2420,42.8014,5.9826,13.2966,4.59891,2453.582,38.4867
2023-09-27T01:36:49,2420,42.8014,5.9826,13.2969,4.59905,2453.604,38.4876
2023-09-27T01:39:49,2420,42.8014,5.9826,13.2970,4.59900,2453.582,38.4870
2023-09-27T01:42:49,2420,42.8014,5.9826,13.2968,4.59900,2453.582,38.4872
2023-09-27T01:45:49,2420,42.8014,5.9826,13.2966,4.59902,2453.582,38.4876
2023-09-27T01:48:49,2420,42.8014,5.9826,13.2971,4.59906,2453.582,38.4874
2023-09-27T01:51:49,2420,42.8014,5.9826,13.2965,4.59917,2453.582,38.4891
2023-09-27T01:54:49,2420,42.8014,5.9826,13.2970,4.59910,2453.582,38.4880
2023-09-27T01:57:49,2420,42.8014,5.9826,13.2964,4.59908,2453.582,38.4884
2023-09-27T02:00:49,2420,42.8014,5.9826,13.2968,4.59912,2453.582,38.4883
2023-09-27T02:03:49,2420,42.8014,5.9826,13.2970,4.59914,2453.619,38.4883
2023-09-27T02:06:49,2420,42.8014,5.9826,13.2970,4.59906,2453.604,38.4876
2023-09-27T02:09:49,2420,42.8014,5.9826,13.2966,4.59905,2453.582,38.4879
2023-09-27T02:12:49,2420,42.8014,5.9826,13.2964,4.59904,2453.604,38.4880
2023-09-27T02:15:49,2420,42.8014,5.9826,13.2969,4.59903,2453.582,38.4874
2023-09-27T02:18:49,2420,42.8014,5.9826,13.2969,4.59907,2453.627,38.4878
2023-09-27T02:21:49,2420,42.8014,5.9826,13.2969,4.59916,2453.612,38.4886
2023-09-27T02:24:49,2420,42.8014,5.9826,13.2971,4.59917,2453.627,38.4885
2023-09-27T02:27:49,2420,42.8014,5.9826,13.2966,4.59928,2453.627,38.4901
2023-09-27T02:30:49,2420,42.8014,5.9826,13.2971,4.59916,2453.649,38.4884
2023-09-27T02:33:49,2420,42.8014,5.9826,13.2971,4.59918,2453.627,38.4886
2023-09-27T02:36:49,2420,42.8014,5.9826,13.2966,4.59906,2453.649,38.4880
2023-09-27T02:39:49,2420,42.8014,5.9826,13.2970,4.59909,2453.627,38.4879
2023-09-27T02:42:49,2420,42.8014,5.9826,13.2967,4.59914,2453.627,38.4887
2023-09-27T02:45:49,2420,42.8014,5.9826,13.2972,4.59920,2453.619,38.4888
2023-09-27T02:48:49,2420,42.8014,5.9826,13.2968,4.59915,2453.627,38.4886
2023-09-27T02:51:49,2420,42.8014,5.9826,13.2968,4.59911,2453.604,38.4882
2023-09-27T02:54:49,2420,42.8014,5.9826,13.2969,4.59914,2453.627,38.4885
2023-09-27T02:57:50,2420,42.8014,5.9826,13.2969,4.59917,2453.627,38.4888
2023-09-27T03:00:49,2420,42.8014,5.9826,13.2968,4.59918,2453.627,38.4889
2023-09-27T03:03:49,2420,42.8014,5.9826,13.2970,4.59911,2453.649,38.4881
2023-09-27T03:06:49,2420,42.8014,5.9826,13.2972,4.59923,2453.627,38.4890
2023-09-27T03:09:49,2420,42.8014,5.9826,13.2970,4.59981,2453.627,38.4947
2023-09-27T03:12:49,2420,42.8014,5.9826,13.2970,4.59926,2453.649,38.4895
2023-09-27T03:15:49,2420,42.8014,5.9826,13.2970,4.59925,2453.612,38.4894
2023-09-27T03:18:49,2420,42.8014,5.9826,13.2971,4.59926,2453.627,38.4894
2023-09-27T03:21:49,2420,42.8014,5.9826,13.2972,4.59932,2453.649,38.4899
2023-09-27T03:24:49,2420,42.8014,5.9826,13.2968,4.59940,2453.627,38.4910
2023-09-27T03:27:50,2420,42.8014,5.9826,13.2966,4.59939,2453.627,38.4910
2023-09-27T03:30:49,2420,42.8014,5.9826,13.2970,4.59923,2453.672,38.4892
2023-09-27T03:33:49,2420,42.8014,5.9826,13.2970,4.59917,2453.627,38.4886
2023-09-27T03:36:49,2420,42.8014,5.9826,13.2973,4.60112,2453.649,38.5067
2023-09-27T03:39:49,2420,42.8014,5.9826,13.2971,4.60190,2453.649,38.5143
2023-09-27T03:42:49,2420,42.8014,5.9826,13.2973,4.60018,2453.649,38.4978
2023-09-27T03:45:49,2420,42.8014,5.9826,13.2968,4.59945,2453.687,38.4915
2023-09-27T03:48:49,2420,42.8014,5.9826,13.2968,4.59928,2453.672,38.4899
2023-09-27T03:51:49,2420,42.8014,5.9826,13.2974,4.60181,2453.680,38.5131
2023-09-27T03:54:49,2420,42.8014,5.9826,13.2973,4.60025,2453.672,38.4984
2023-09-27T03:57:49,2420,42.8014,5.9826,13.2973,4.60024,2453.649,38.4984
2023-09-27T04:00:49,2420,42.8014,5.9826,13.2976,4.60130,2453.672,38.5081
2023-09-27T04:03:49,2420,42.8014,5.9826,13.2971,4.59964,2453.672,38.4929
2023-09-27T04:06:49,2420,42.8014,5.9826,13.2971,4.59948,2453.717,38.4914
2023-09-27T04:09:49,2420,42.8014,5.9826,13.2968,4.59939,2453.649,38.4908
2023-09-27T04:12:49,2420,42.8014,5.9826,13.2970,4.59956,2453.649,38.4923
2023-09-27T04:15:49,2420,42.8014,5.9826,13.2973,4.59976,2453.680,38.4939
2023-09-27T04:18:49,2420,42.8014,5.9826,13.2971,4.59960,2453.695,38.4926
2023-09-27T04:21:49,2420,42.8014,5.9826,13.2972,4.59940,2453.687,38.4906
2023-09-27T04:24:49,2420,42.8014,5.9826,13.2974,4.59954,2453.672,38.4917
2023-09-27T04:27:49,2420,42.8014,5.9826,13.2976,4.60027,2453.695,38.4984
2023-09-27T04:30:49,2420,42.8014,5.9826,13.2970,4.59951,2453.680,38.4918
2023-09-27T04:33:49,2420,42.8014,5.9826,13.2970,4.59968,2453.672,38.4934
2023-09-27T04:36:49,2420,42.8014,5.9826,13.2969,4.59956,2453.672,38.4924
2023-09-27T04:39:49,2420,42.8014,5.9826,13.2970,4.59974,2453.695,38.4940
2023-09-27T04:42:49,2420,42.8014,5.9826,13.2971,4.59978,2453.717,38.4942
2023-09-27T04:45:49,2420,42.8014,5.9826,13.2974,4.59965,2453.695,38.4927
2023-09-27T04:48:49,2420,42.8014,5.9826,13.3063,4.60008,2453.695,38.4879
2023-09-27T04:51:49,2420,42.8014,5.9826,13.2982,4.60063,2453.695,38.5012
2023-09-27T04:54:49,2420,42.8014,5.9826,13.2993,4.60152,2453.687,38.5085
2023-09-27T04:57:49,2420,42.8014,5.9826,13.2997,4.60133,2453.695,38.5064
2023-09-27T05:00:50,2420,42.8014,5.9826,13.3012,4.60233,2453.680,38.5142
2023-09-27T05:03:49,2420,42.8014,5.9826,13.2992,4.60330,2453.695,38.5254
2023-09-27T05:06:49,2420,42.8014,5.9826,13.3002,4.60156,2453.695,38.5080
2023-09-27T05:09:49,2420,42.8014,5.9826,13.2992,4.60111,2453.695,38.5047
2023-09-27T05:12:49,2420,42.8014,5.9826,13.2995,4.60121,2453.695,38.5054
2023-09-27T05:15:49,2420,42.8014,5.9826,13.3141,4.60108,2453.695,38.4897
2023-09-27T05:18:49,2420,42.8014,5.9826,13.3005,4.60170,2453.687,38.5089
2023-09-27T05:21:49,2420,42.8014,5.9826,13.3034,4.60194,2453.680,38.5084
2023-09-27T05:24:49,2420,42.8014,5.9826,13.3211,4.60495,2453.687,38.5192
2023-09-27T05:27:49,2420,42.8014,5.9826,13.3005,4.60113,2453.695,38.5036
2023-09-27T05:30:49,2420,42.8014,5.9826,13.3012,4.60237,2453.695,38.5146
2023-09-27T05:33:49,2420,42.8014,5.9826,13.3031,4.60195,2453.709,38.5088
2023-09-27T05:36:49,2420,42.8014,5.9826,13.3049,4.60361,2453.695,38.5226
2023-09-27T05:39:49,2420,42.8014,5.9826,13.3061,4.60152,2453.695,38.5018
2023-09-27T05:42:49,2420,42.8014,5.9826,13.3427,4.60121,2453.649,38.4625
2023-09-27T05:45:49,2420,42.8014,5.9826,13.3135,4.60105,2453.687,38.4900
2023-09-27T05:48:49,2420,42.8014,5.9826,13.2997,4.60306,2453.672,38.5227
2023-09-27T05:51:49,2420,42.8014,5.9826,13.3021,4.60099,2453.687,38.5007
2023-09-27T05:54:49,2420,42.8014,5.9826,13.3246,4.60185,2453.709,38.4865
2023-09-27T05:57:49,2420,42.8014,5.9826,13.3192,4.60141,2453.709,38.4877
2023-09-27T06:00:49,2420,42.8014,5.9826,13.3002,4.60270,2453.732,38.5187
2023-09-27T06:03:49,2420,42.8014,5.9826,13.3083,4.60292,2453.709,38.5128
2023-09-27T06:06:49,2420,42.8014,5.9826,13.3357,4.60093,2453.695,38.4668
2023-09-27T06:09:49,2420,42.8014,5.9826,13.3120,4.60050,2453.687,38.4863
2023-09-27T06:12:49,2420,42.8014,5.9826,13.3056,4.60342,2453.695,38.5202
2023-09-27T06:15:49,2420,42.8014,5.9826,13.3178,4.60046,2453.672,38.4801
2023-09-27T06:18:49,2420,42.8014,5.9826,13.3095,4.60179,2453.678,38.5009
2023-09-27T06:21:49,2420,42.8014,5.9826,13.2999,4.60080,2453.695,38.5011
2023-09-27T06:24:49,2420,42.8014,5.9826,13.3137,4.60209,2453.687,38.4996
2023-09-27T06:27:49,2420,42.8014,5.9826,13.3033,4.60308,2453.687,38.5193
2023-09-27T06:30:49,2420,42.8014,5.9826,13.2984,4.60233,2453.695,38.5170
2023-09-27T06:33:49,2420,42.8014,5.9826,13.3029,4.60272,2453.709,38.5163
2023-09-27T06:36:49,2420,42.8014,5.9826,13.3025,4.60159,2453.709,38.5060
2023-09-27T06:39:49,2420,42.8014,5.9826,13.2973,4.60520,2453.695,38.5453
2023-09-27T06:42:49,2420,42.8014,5.9826,13.2974,4.60209,2453.672,38.5158
2023-09-27T06:45:50,2420,42.8014,5.9826,13.3021,4.60334,2453.695,38.5229
2023-09-27T06:48:49,2420,42.8014,5.9826,13.2982,4.60323,2453.649,38.5258
2023-09-27T06:51:49,2420,42.8014,5.9826,13.3046,4.60457,2453.695,38.5321
2023-09-27T06:54:49,2420,42.8014,5.9826,13.3631,4.60165,2453.672,38.4464
2023-09-27T06:57:49,2420,42.8014,5.9826,13.3378,4.60249,2453.672,38.4795
2023-09-27T07:00:49,2420,42.8014,5.9826,13.2970,4.60181,2453.687,38.5135
2023-09-27T07:03:49,2420,42.8014,5.9826,13.2969,4.60029,2453.664,38.4993
2023-09-27T07:06:49,2420,42.8014,5.9826,13.2970,4.60026,2453.709,38.4989
2023-09-27T07:09:49,2420,42.8014,5.9826,13.2971,4.60155,2453.695,38.5109
2023-09-27T07:12:49,2420,42.8014,5.9826,13.2964,4.60008,2453.672,38.4978
2023-09-27T07:15:49,2420,42.8014,5.9826,13.2970,4.60067,2453.695,38.5028
2023-09-27T07:18:49,2420,42.8014,5.9826,13.2966,4.60164,2453.672,38.5123
2023-09-27T07:21:49,2420,42.8014,5.9826,13.2968,4.60085,2453.649,38.5046
2023-09-27T07:24:49,2420,42.8014,5.9826,13.2971,4.60511,2453.695,38.5446
2023-09-27T07:27:49,2420,42.8014,5.9826,13.2972,4.60442,2453.695,38.5380
2023-09-27T07:30:49,2420,42.8014,5.9826,13.2972,4.60164,2453.664,38.5118
2023-09-27T07:33:49,2420,42.8014,5.9826,13.2970,4.60624,2453.664,38.5554
2023-09-27T07:36:49,2420,42.8014,5.9826,13.3294,4.60141,2453.649,38.4776
2023-09-27T07:39:49,2420,42.8014,5.9826,13.2979,4.60099,2453.649,38.5049
2023-09-27T07:42:49,2420,42.8014,5.9826,13.2970,4.60317,2453.649,38.5263
2023-09-27T07:45:49,2420,42.8014,5.9826,13.2973,4.60575,2453.664,38.5504
2023-09-27T07:48:49,2420,42.8014,5.9826,13.3810,4.60062,2453.627,38.4190
2023-09-27T07:51:49,2420,42.8014,5.9826,13.2984,4.60352,2453.649,38.5283
2023-09-27T07:54:49,2420,42.8014,5.9826,13.3604,4.60057,2453.627,38.4390
2023-09-27T07:57:49,2420,42.8014,5.9826,13.4238,4.60057,2453.641,38.3762
2023-09-27T08:00:49,2420,42.8014,5.9826,13.3047,4.59996,2453.687,38.4885
2023-09-27T08:03:49,2420,42.8014,5.9826,13.3808,4.59981,2453.664,38.4116
2023-09-27T08:06:49,2420,42.8014,5.9826,13.3104,4.60026,2453.687,38.4856
2023-09-27T08:09:49,2420,42.8014,5.9826,13.3575,4.60018,2453.627,38.4381
2023-09-27T08:12:49,2420,42.8014,5.9826,13.3170,4.60004,2453.627,38.4769
2023-09-27T08:15:49,2420,42.8014,5.9826,13.3035,4.60022,2453.672,38.4921
2023-09-27T08:18:49,2420,42.8014,5.9826,13.2992,4.59995,2453.649,38.4938
2023-09-27T08:21:49,2420,42.8014,5.9826,13.3042,4.59999,2453.672,38.4891
2023-09-27T08:24:49,2420,42.8014,5.9826,13.3280,4.60001,2453.627,38.4658
2023-09-27T08:27:49,2420,42.8014,5.9826,13.2991,4.60021,2453.672,38.4964
2023-09-27T08:30:49,2420,42.8014,5.9826,13.3011,4.60008,2453.627,38.4932
2023-09-27T08:33:49,2420,42.8014,5.9826,13.3038,4.60017,2453.649,38.4914
2023-09-27T08:36:49,2420,42.8014,5.9826,13.3414,4.60005,2453.649,38.4529
2023-09-27T08:39:49,2420,42.8014,5.9826,13.3917,4.59999,2453.627,38.4026
2023-09-27T08:42:49,2420,42.8014,5.9826,13.3140,4.59996,2453.641,38.4792
2023-09-27T08:45:49,2420,42.8014,5.9826,13.3023,4.59977,2453.641,38.4890
2023-09-27T08:48:49,2420,42.8014,5.9826,13.3067,4.59961,2453.641,38.4832
2023-09-27T08:51:49,2420,42.8014,5.9826,13.3215,4.60004,2453.612,38.4725
2023-09-27T08:54:49,2420,42.8014,5.9826,13.4176,4.59975,2453.627,38.3747
2023-09-27T08:57:49,2420,42.8014,5.9826,13.2996,4.60025,2453.596,38.4963
2023-09-27T09:00:49,2420,42.8014,5.9826,13.3138,4.60073,2453.627,38.4867
2023-09-27T09:03:49,2420,42.8014,5.9826,13.3068,4.60039,2453.619,38.4904
2023-09-27T09:06:49,2420,42.8014,5.9826,13.3450,4.60002,2453.649,38.4490
2023-09-27T09:09:49,2420,42.8014,5.9826,13.4003,4.59974,2453.604,38.3917
2023-09-27T09:12:49,2420,42.8014,5.9826,13.3815,4.60003,2453.627,38.4130
2023-09-27T09:15:49,2420,42.8014,5.9826,13.3083,4.60028,2453.641,38.4879
2023-09-27T09:18:49,2420,42.8014,5.9826,13.3215,4.59993,2453.619,38.4715
2023-09-27T09:21:49,2420,42.8014,5.9826,13.3054,4.59998,2453.619,38.4879
2023-09-27T09:24:49,2420,42.8014,5.9826,13.3086,4.59988,2453.649,38.4838
2023-09-27T09:27:49,2420,42.8014,5.9826,13.3069,4.60009,2453.619,38.4875
2023-09-27T09:30:49,2420,42.8014,5.9826,13.2994,4.60010,2453.596,38.4950
2023-09-27T09:33:49,2420,42.8014,5.9826,13.3022,4.60002,2453.604,38.4915
2023-09-27T09:36:49,2420,42.8014,5.9826,13.3334,4.59982,2453.604,38.4586
2023-09-27T09:39:49,2420,42.8014,5.9826,13.3112,4.59958,2453.574,38.4784
2023-09-27T09:42:49,2420,42.8014,5.9826,13.3003,4.60040,2453.604,38.4970
2023-09-27T09:45:49,2420,42.8014,5.9826,13.2979,4.60028,2453.582,38.4982
2023-09-27T09:48:49,2420,42.8014,5.9826,13.3138,4.59992,2453.619,38.4791
2023-09-27T09:51:49,2420,42.8014,5.9826,13.3121,4.59974,2453.604,38.4791
2023-09-27T09:54:49,2420,42.8014,5.9826,13.3297,4.59974,2453.619,38.4615
2023-09-27T09:57:49,2420,42.8014,5.9826,13.3202,4.59988,2453.559,38.4724
2023-09-27T10:00:49,2420,42.8014,5.9826,13.3126,4.59961,2453.590,38.4773
2023-09-27T10:03:49,2420,42.8014,5.9826,13.3079,4.59975,2453.604,38.4833
2023-09-27T10:06:49,2420,42.8014,5.9826,13.3149,4.59968,2453.604,38.4758
2023-09-27T10:09:49,2420,42.8014,5.9826,13.3026,4.59946,2453.596,38.4859
2023-09-27T10:12:49,2420,42.8014,5.9826,13.2997,4.59946,2453.559,38.4887
2023-09-27T10:15:49,2420,42.8014,5.9826,13.3054,4.59990,2453.582,38.4871
2023-09-27T10:18:49,2420,42.8014,5.9826,13.3170,4.60002,2453.582,38.4768
2023-09-27T10:21:49,2420,42.8014,5.9826,13.3006,4.59949,2453.559,38.4881
2023-09-27T10:24:49,2420,42.8014,5.9826,13.3130,4.60032,2453.596,38.4836
2023-09-27T10:27:49,2420,42.8014,5.9826,13.3046,4.59982,2453.582,38.4873
2023-09-27T10:30:49,2420,42.8014,5.9826,13.3103,4.59988,2453.582,38.4821
2023-09-27T10:33:49,2420,42.8014,5.9826,13.3245,4.59940,2453.559,38.4636
2023-09-27T10:36:49,2420,42.8014,5.9826,13.3084,4.59966,2453.582,38.4820
2023-09-27T10:39:49,2420,42.8014,5.9826,13.3109,4.60008,2453.551,38.4835
2023-09-27T10:42:49,2420,42.8014,5.9826,13.3569,4.60061,2453.551,38.4429
2023-09-27T10:45:49,2420,42.8014,5.9826,13.3143,4.60070,2453.582,38.4859
2023-09-27T10:48:49,2420,42.8014,5.9826,13.3523,4.59987,2453.567,38.4404
2023-09-27T10:51:49,2420,42.8014,5.9826,13.3445,4.59987,2453.559,38.4482
2023-09-27T10:54:49,2420,42.8014,5.9826,13.3049,4.59993,2453.559,38.4879
2023-09-27T10:57:49,2420,42.8014,5.9826,13.3074,4.59985,2453.574,38.4848
2023-09-27T11:00:49,2420,42.8014,5.9826,13.3042,4.59989,2453.559,38.4883
2023-09-27T11:03:49,2420,42.8014,5.9826,13.3518,4.59954,2453.582,38.4378
2023-09-27T11:06:49,2420,42.8014,5.9826,13.3142,4.60011,2453.559,38.4804
2023-09-27T11:09:49,2420,42.8014,5.9826,13.3037,4.59959,2453.559,38.4860
2023-09-27T11:12:49,2420,42.8014,5.9826,13.3562,4.59977,2453.559,38.4356
2023-09-27T11:15:49,2420,42.8014,5.9826,13.3099,4.59971,2453.537,38.4809
2023-09-27T11:18:49,2420,42.8014,5.9826,13.3198,4.59983,2453.537,38.4723
2023-09-27T11:21:49,2420,42.8014,5.9826,13.3109,4.59996,2453.551,38.4822
2023-09-27T11:24:49,2420,42.8014,5.9826,13.3134,4.59977,2453.514,38.4780
2023-09-27T11:27:50,2420,42.8014,5.9826,13.3091,4.59973,2453.574,38.4819
2023-09-27T11:30:49,2420,42.8014,5.9826,13.3246,4.59987,2453.537,38.4678
2023-09-27T11:33:49,2420,42.8014,5.9826,13.3103,4.59971,2453.596,38.4806
2023-09-27T11:36:49,2420,42.8014,5.9826,13.3083,4.59979,2453.574,38.4834
2023-09-27T11:39:49,2420,42.8014,5.9826,13.3113,4.59952,2453.559,38.4777
2023-09-27T11:42:49,2420,42.8014,5.9826,13.3084,4.59937,2453.537,38.4793
2023-09-27T11:45:49,2420,42.8014,5.9826,13.3159,4.59954,2453.559,38.4733
2023-09-27T11:48:49,2420,42.8014,5.9826,13.3072,4.59931,2453.574,38.4798
2023-09-27T11:51:49,2420,42.8014,5.9826,13.3058,4.59929,2453.537,38.4811
2023-09-27T11:54:50,2420,42.8014,5.9826,13.3151,4.59940,2453.574,38.4728
2023-09-27T11:57:49,2420,42.8014,5.9826,13.3214,4.59952,2453.596,38.4678
2023-09-27T12:00:49,2420,42.8014,5.9826,13.3147,4.59981,2453.537,38.4771
2023-09-27T12:03:49,2420,42.8014,5.9826,13.3292,4.59979,2453.537,38.4626
2023-09-27T12:06:49,2420,42.8014,5.9826,13.3160,4.59948,2453.537,38.4727
2023-09-27T12:09:49,2420,42.8014,5.9826,13.3201,4.59982,2453.537,38.4719
2023-09-27T12:12:49,2420,42.8014,5.9826,13.3172,4.59981,2453.528,38.4747
2023-09-27T12:15:49,2420,42.8014,5.9826,13.3245,4.59968,2453.559,38.4661
2023-09-27T12:18:49,2420,42.8014,5.9826,13.3228,4.59982,2453.551,38.4692
2023-09-27T12:21:49,2420,42.8014,5.9826,13.3155,4.59976,2453.574,38.4759
2023-09-27T12:24:49,2420,42.8014,5.9826,13.3175,4.59954,2453.551,38.4718
2023-09-27T12:27:49,2420,42.8014,5.9826,13.3111,4.59959,2453.559,38.4786
2023-09-27T12:30:49,2420,42.8014,5.9826,13.3134,4.59961,2453.574,38.4765
2023-09-27T12:33:49,2420,42.8014,5.9826,13.3072,4.59959,2453.596,38.4824
2023-09-27T12:36:49,2420,42.8014,5.9826,13.3189,4.59957,2453.559,38.4706
2023-09-27T12:39:49,2420,42.8014,5.9826,13.3026,4.59933,2453.537,38.4846
2023-09-27T12:42:49,2420,42.8014,5.9826,13.3041,4.59941,2453.582,38.4839
2023-09-27T12:45:49,2420,42.8014,5.9826,13.3087,4.59940,2453.537,38.4792
2023-09-27T12:48:49,2420,42.8014,5.9826,13.3255,4.59966,2453.551,38.4650
2023-09-27T12:51:49,2420,42.8014,5.9826,13.3051,4.59934,2453.537,38.4823
2023-09-27T12:54:49,2420,42.8014,5.9826,13.3112,4.60005,2453.559,38.4828
2023-09-27T12:57:49,2420,42.8014,5.9826,13.3570,4.60159,2453.551,38.4520
2023-09-27T13:00:49,2420,42.8014,5.9826,13.3069,4.60055,2453.537,38.4918
2023-09-27T13:03:49,2420,42.8014,5.9826,13.3448,4.59999,2453.537,38.4490
2023-09-27T13:06:49,2420,42.8014,5.9826,13.3174,4.60065,2453.574,38.4824
2023-09-27T13:09:49,2420,42.8014,5.9826,13.3200,4.60011,2453.574,38.4747
2023-09-27T13:12:49,2420,42.8014,5.9826,13.3019,4.60062,2453.596,38.4975
2023-09-27T13:15:49,2420,42.8014,5.9826,13.3097,4.60017,2453.559,38.4855
2023-09-27T13:18:49,2420,42.8014,5.9826,13.3531,4.60032,2453.574,38.4438
2023-09-27T13:21:49,2420,42.8014,5.9826,13.3299,4.60064,2453.582,38.4699
2023-09-27T13:24:49,2420,42.8014,5.9826,13.3490,4.60003,2453.574,38.4452
2023-09-27T13:27:49,2420,42.8014,5.9826,13.3054,4.60059,2453.551,38.4938
2023-09-27T13:30:49,2420,42.8014,5.9826,13.3139,4.60029,2453.619,38.4824
2023-09-27T13:33:49,2420,42.8014,5.9826,13.3257,4.60025,2453.574,38.4703
2023-09-27T13:36:49,2420,42.8014,5.9826,13.3118,4.59999,2453.619,38.4816
2023-09-27T13:39:49,2420,42.8014,5.9826,13.3057,4.59992,2453.619,38.4871
2023-09-27T13:42:49,2420,42.8014,5.9826,13.3156,4.59984,2453.582,38.4765
2023-09-27T13:45:49,2420,42.8014,5.9826,13.3140,4.59990,2453.574,38.4786
2023-09-27T13:48:49,2420,42.8014,5.9826,13.3048,4.60005,2453.596,38.4892
2023-09-27T13:51:49,2420,42.8014,5.9826,13.3033,4.60022,2453.596,38.4924
2023-09-27T13:54:49,2420,42.8014,5.9826,13.3069,4.60052,2453.582,38.4916
2023-09-27T13:57:49,2420,42.8014,5.9826,13.3072,4.60039,2453.559,38.4900
2023-09-27T14:00:49,2420,42.8014,5.9826,13.3026,4.60081,2453.619,38.4986
2023-09-27T14:03:49,2420,42.8014,5.9826,13.3000,4.60034,2453.627,38.4968
2023-09-27T14:06:49,2420,42.8014,5.9826,13.3174,4.60007,2453.627,38.4768
2023-09-27T14:09:49,2420,42.8014,5.9826,13.3260,4.60234,2453.604,38.4898
2023-09-27T14:12:49,2420,42.8014,5.9826,13.3067,4.60241,2453.582,38.5096
2023-09-27T14:15:49,2420,42.8014,5.9826,13.3038,4.60047,2453.627,38.4941
2023-09-27T14:18:49,2420,42.8014,5.9826,13.3045,4.60085,2453.619,38.4970
2023-09-27T14:21:49,2420,42.8014,5.9826,13.3083,4.60178,2453.627,38.5020
2023-09-27T14:24:49,2420,42.8014,5.9826,13.2998,4.60083,2453.664,38.5015
2023-09-27T14:27:49,2420,42.8014,5.9826,13.3006,4.60006,2453.649,38.4935
2023-09-27T14:30:49,2420,42.8014,5.9826,13.2994,4.60107,2453.649,38.5041
2023-09-27T14:33:49,2420,42.8014,5.9826,13.3029,4.60042,2453.649,38.4945
2023-09-27T14:36:49,2420,42.8014,5.9826,13.3029,4.60016,2453.627,38.4922
2023-09-27T14:39:49,2420,42.8014,5.9826,13.3076,4.60044,2453.649,38.4901
2023-09-27T14:42:49,2420,42.8014,5.9826,13.3114,4.60062,2453.627,38.4879
2023-09-27T14:45:49,2420,42.8014,5.9826,13.3017,4.60019,2453.672,38.4935
2023-09-27T14:48:49,2420,42.8014,5.9826,13.3044,4.60083,2453.664,38.4970
2023-09-27T14:51:49,2420,42.8014,5.9826,13.3129,4.60117,2453.672,38.4917
2023-09-27T14:54:49,2420,42.8014,5.9826,13.3069,4.60130,2453.664,38.4989
2023-09-27T14:57:49,2420,42.8014,5.9826,13.3135,4.60149,2453.649,38.4941
2023-09-27T15:00:50,2420,42.8014,5.9826,13.3179,4.60239,2453.687,38.4982
2023-09-27T15:03:49,2420,42.8014,5.9826,13.3143,4.60160,2453.649,38.4944
2023-09-27T15:06:49,2420,42.8014,5.9826,13.3243,4.60146,2453.649,38.4831
2023-09-27T15:09:49,2420,42.8014,5.9826,13.3167,4.60384,2453.687,38.5132
2023-09-27T15:12:49,2420,42.8014,5.9826,13.3232,4.60153,2453.672,38.4849
2023-09-27T15:15:49,2420,42.8014,5.9826,13.3183,4.60031,2453.672,38.4783
2023-09-27T15:18:49,2420,42.8014,5.9826,13.3002,4.60019,2453.732,38.4950
2023-09-27T15:21:49,2420,42.8014,5.9826,13.3018,4.60036,2453.709,38.4951
2023-09-27T15:24:49,2420,42.8014,5.9826,13.3011,4.60041,2453.732,38.4962
2023-09-27T15:27:49,2420,42.8014,5.9826,13.3008,4.59988,2453.717,38.4915
2023-09-27T15:30:49,2420,42.8014,5.9826,13.2990,4.59981,2453.732,38.4926
2023-09-27T15:33:49,2420,42.8014,5.9826,13.2987,4.59999,2453.717,38.4946
2023-09-27T15:36:49,2420,42.8014,5.9826,13.2992,4.59953,2453.740,38.4898
2023-09-27T15:39:49,2420,42.8014,5.9826,13.3004,4.59960,2453.740,38.4893
2023-09-27T15:42:49,2420,42.8014,5.9826,13.2978,4.59948,2453.740,38.4908
2023-09-27T15:45:49,2420,42.8014,5.9826,13.2991,4.59974,2453.717,38.4919
2023-09-27T15:48:49,2420,42.8014,5.9826,13.2979,4.59954,2453.740,38.4912
2023-09-27T15:51:49,2420,42.8014,5.9826,13.2991,4.59994,2453.740,38.4938
2023-09-27T15:54:49,2420,42.8014,5.9826,13.2988,4.59957,2453.762,38.4905
2023-09-27T15:57:49,2420,42.8014,5.9826,13.2984,4.59982,2453.762,38.4934
2023-09-27T16:00:49,2420,42.8014,5.9826,13.2986,4.59962,2453.762,38.4912
2023-09-27T16:03:49,2420,42.8014,5.9826,13.2987,4.59966,2453.777,38.4915